Вернуться в каталог

FGN-100-D2

АктивенНаукаVLEO
NORAD 66299·PAYLOAD·🇹🇷 Turkey

Запущен Nov 2, 2025 с Cape Canaveral Space Force Station

Loading…

Ближайшие Пролёты (ближайшие 24 часа)

TLE

СвежийSource: Space-Track

Эпоха: Sep 14, 2026, 13:21 UTC

1 66299U 25248G   26257.55683468  .00004253  00000-0  20029-3 0  9990
2 66299  45.4018   1.6889 0004851 204.4546 155.6111 15.21106805 48125

Отслеживайте FGN-100-D2 в реальном времени с AllMySat

Download on the App Store